• In Belarus
  • List of Countries
  • For 7 days
  • Water Temperature
  • Satellite Maps
  • Weather Map
  • Weather Widgets
  • user-avatar
    Login

    Hourly Weather Carmarthen

    Today, 24 March, Sunday

    Time Temperature Precipitation Wind Pressure Humidity
    00:00 +1°C° 0 mm 5 mps 771 mmHg 87%
    01:00 +1°C° 0 mm 5 mps 771 mmHg 86%
    02:00 +1°C° 0 mm 6 mps 770 mmHg 86%
    03:00 +1°C° 0 mm 6 mps 770 mmHg 86%
    04:00 +1°C° 0 mm 6 mps 770 mmHg 86%
    05:00 0°C° 0 mm 7 mps 770 mmHg 86%
    06:00 0°C° 0 mm 7 mps 770 mmHg 86%
    07:00 +2°C° 0 mm 7 mps 769 mmHg 82%
    08:00 +2°C° 0 mm 8 mps 769 mmHg 78%
    09:00 +5°C° 0 mm 8 mps 769 mmHg 74%
    10:00 +5°C° 0 mm 8 mps 769 mmHg 74%
    11:00 +6°C° 0 mm 8 mps 769 mmHg 73%
    12:00 +7°C° 0 mm 8 mps 769 mmHg 73%
    13:00 +7°C° 0.1 mm 8 mps 769 mmHg 72%
    14:00 +7°C° 0.1 mm 8 mps 769 mmHg 71%
    15:00 +9°C° 0.1 mm 8 mps 769 mmHg 71%
    16:00 +7°C° 0.1 mm 8 mps 769 mmHg 74%
    17:00 +6°C° 0.1 mm 8 mps 769 mmHg 77%
    18:00 +6°C° 0.1 mm 8 mps 769 mmHg 81%
    19:00 +5°C° 0.1 mm 8 mps 770 mmHg 82%
    20:00 +5°C° 0.1 mm 8 mps 770 mmHg 84%
    21:00 +4°C° 0.1 mm 8 mps 770 mmHg 85%
    22:00 +4°C° 0 mm 8 mps 771 mmHg 85%
    23:00 +4°C° 0 mm 8 mps 771 mmHg 84%

    Tomorrow, 25 March, Monday

    Time Temperature Precipitation Wind Pressure Humidity
    00:00 +3°C° 0 mm 7 mps 771 mmHg 83%
    01:00 +3°C° 0 mm 7 mps 771 mmHg 83%
    02:00 +4°C° 0 mm 7 mps 772 mmHg 82%
    03:00 +4°C° 0 mm 7 mps 772 mmHg 81%
    04:00 +4°C° 0 mm 6 mps 772 mmHg 82%
    05:00 +3°C° 0 mm 6 mps 772 mmHg 84%
    06:00 +3°C° 0 mm 6 mps 773 mmHg 85%
    07:00 +5°C° 0 mm 5 mps 773 mmHg 82%
    08:00 +6°C° 0 mm 5 mps 773 mmHg 80%
    09:00 +7°C° 0 mm 5 mps 774 mmHg 77%
    10:00 +7°C° 0 mm 5 mps 774 mmHg 74%
    11:00 +8°C° 0 mm 4 mps 774 mmHg 71%
    12:00 +10°C° 0 mm 4 mps 774 mmHg 68%
    13:00 +10°C° 0 mm 3 mps 774 mmHg 69%
    14:00 +10°C° 0 mm 3 mps 774 mmHg 70%
    15:00 +10°C° 0 mm 3 mps 774 mmHg 71%
    16:00 +9°C° 0 mm 2 mps 774 mmHg 74%
    17:00 +9°C° 0 mm 2 mps 774 mmHg 76%
    18:00 +9°C° 0 mm 1 mps 774 mmHg 79%
    19:00 +9°C° 0 mm 1 mps 774 mmHg 80%
    20:00 +8°C° 0 mm 1 mps 774 mmHg 81%
    21:00 +7°C° 0 mm 0 mps 775 mmHg 82%
    22:00 +7°C° 0 mm 1 mps 775 mmHg 84%
    23:00 +6°C° 0 mm 1 mps 775 mmHg 87%

    Day after tomorrow, 26 March, Tuesday

    Time Temperature Precipitation Wind Pressure Humidity
    00:00 +4°C° 0 mm 2 mps 774 mmHg 90%
    01:00 +4°C° 0 mm 2 mps 774 mmHg 91%
    02:00 +4°C° 0 mm 2 mps 774 mmHg 91%
    03:00 +2°C° 0 mm 3 mps 774 mmHg 92%
    04:00 +2°C° 0 mm 3 mps 774 mmHg 92%
    05:00 +2°C° 0 mm 3 mps 774 mmHg 93%
    06:00 +1°C° 0 mm 4 mps 774 mmHg 94%
    07:00 +3°C° 0 mm 4 mps 774 mmHg 90%
    08:00 +4°C° 0 mm 4 mps 774 mmHg 86%
    09:00 +6°C° 0 mm 4 mps 773 mmHg 82%
    10:00 +7°C° 0 mm 4 mps 774 mmHg 79%
    11:00 +8°C° 0 mm 4 mps 774 mmHg 76%
    12:00 +10°C° 0 mm 4 mps 774 mmHg 72%
    13:00 +10°C° 0 mm 4 mps 773 mmHg 73%
    14:00 +10°C° 0 mm 3 mps 773 mmHg 74%
    15:00 +10°C° 0 mm 3 mps 773 mmHg 74%
    16:00 +10°C° 0 mm 3 mps 773 mmHg 77%
    17:00 +9°C° 0 mm 2 mps 773 mmHg 79%
    18:00 +9°C° 0 mm 2 mps 773 mmHg 82%
    19:00 +8°C° 0 mm 2 mps 773 mmHg 83%
    20:00 +8°C° 0 mm 2 mps 774 mmHg 84%
    21:00 +7°C° 0 mm 3 mps 774 mmHg 85%
    22:00 +5°C° 0 mm 3 mps 774 mmHg 87%
    23:00 +5°C° 0 mm 3 mps 774 mmHg 89%

    27 March, Wednesday

    Time Temperature Precipitation Wind Pressure Humidity
    00:00 +4°C° 0 mm 4 mps 773 mmHg 92%
    01:00 +4°C° 0 mm 4 mps 773 mmHg 92%
    02:00 +3°C° 0 mm 4 mps 773 mmHg 92%
    03:00 +3°C° 0 mm 4 mps 773 mmHg 93%
    04:00 +3°C° 0 mm 4 mps 773 mmHg 93%
    05:00 +3°C° 0 mm 3 mps 773 mmHg 94%
    06:00 +2°C° 0 mm 3 mps 773 mmHg 95%
    07:00 +4°C° 0 mm 3 mps 774 mmHg 91%
    08:00 +5°C° 0 mm 3 mps 774 mmHg 87%
    09:00 +7°C° 0 mm 3 mps 774 mmHg 83%
    10:00 +9°C° 0 mm 3 mps 774 mmHg 79%
    11:00 +10°C° 0 mm 3 mps 775 mmHg 74%
    12:00 +13°C° 0 mm 2 mps 775 mmHg 69%
    13:00 +13°C° 0 mm 2 mps 775 mmHg 68%
    14:00 +14°C° 0 mm 1 mps 774 mmHg 67%
    15:00 +14°C° 0 mm 1 mps 774 mmHg 66%
    16:00 +13°C° 0 mm 1 mps 774 mmHg 71%
    17:00 +12°C° 0 mm 1 mps 774 mmHg 76%
    18:00 +11°C° 0 mm 1 mps 774 mmHg 82%
    19:00 +10°C° 0 mm 1 mps 775 mmHg 85%
    20:00 +9°C° 0 mm 1 mps 775 mmHg 88%
    21:00 +7°C° 0 mm 1 mps 775 mmHg 92%
    22:00 +6°C° 0 mm 2 mps 775 mmHg 92%
    23:00 +5°C° 0 mm 2 mps 775 mmHg 92%

    28 March, Thursday

    Time Temperature Precipitation Wind Pressure Humidity
    00:00 +4°C° 0 mm 3 mps 775 mmHg 92%
    01:00 +4°C° 0 mm 2 mps 775 mmHg 92%
    02:00 +4°C° 0 mm 2 mps 775 mmHg 92%
    03:00 +4°C° 0 mm 2 mps 775 mmHg 92%
    04:00 +4°C° 0 mm 2 mps 775 mmHg 93%
    05:00 +3°C° 0 mm 2 mps 775 mmHg 93%
    06:00 +3°C° 0 mm 2 mps 775 mmHg 94%
    07:00 +5°C° 0 mm 2 mps 775 mmHg 90%
    08:00 +6°C° 0 mm 2 mps 775 mmHg 86%
    09:00 +8°C° 0 mm 2 mps 775 mmHg 82%
    10:00 +9°C° 0 mm 2 mps 774 mmHg 77%
    11:00 +10°C° 0 mm 3 mps 774 mmHg 72%
    12:00 +11°C° 0 mm 3 mps 774 mmHg 67%
    13:00 +12°C° 0 mm 3 mps 773 mmHg 67%
    14:00 +12°C° 0 mm 4 mps 773 mmHg 67%
    15:00 +13°C° 0 mm 4 mps 772 mmHg 67%
    16:00 +12°C° 0 mm 4 mps 772 mmHg 71%
    17:00 +11°C° 0 mm 4 mps 771 mmHg 76%
    18:00 +10°C° 0 mm 4 mps 771 mmHg 81%
    19:00 +8°C° 0 mm 4 mps 771 mmHg 85%
    20:00 +7°C° 0 mm 4 mps 771 mmHg 89%
    21:00 +6°C° 0 mm 4 mps 771 mmHg 93%
    22:00 +6°C° 0 mm 4 mps 771 mmHg 93%
    23:00 +5°C° 0 mm 4 mps 770 mmHg 93%

    29 March, Friday

    Time Temperature Precipitation Wind Pressure Humidity
    00:00 +5°C° 0 mm 4 mps 770 mmHg 93%
    01:00 +5°C° 0 mm 4 mps 770 mmHg 93%
    02:00 +4°C° 0 mm 4 mps 769 mmHg 93%
    03:00 +4°C° 0 mm 4 mps 769 mmHg 92%
    04:00 +4°C° 0 mm 4 mps 769 mmHg 92%
    05:00 +3°C° 0 mm 4 mps 769 mmHg 92%
    06:00 +3°C° 0 mm 4 mps 769 mmHg 92%
    07:00 +4°C° 0 mm 4 mps 769 mmHg 89%
    08:00 +5°C° 0 mm 4 mps 769 mmHg 86%
    09:00 +7°C° 0 mm 4 mps 769 mmHg 82%
    10:00 +8°C° 0 mm 4 mps 768 mmHg 80%
    11:00 +10°C° 0 mm 4 mps 768 mmHg 77%
    12:00 +11°C° 0 mm 4 mps 768 mmHg 74%
    13:00 +11°C° 0 mm 4 mps 767 mmHg 75%
    14:00 +11°C° 0 mm 4 mps 767 mmHg 76%
    15:00 +12°C° 0 mm 4 mps 766 mmHg 77%
    16:00 +11°C° 0 mm 4 mps 766 mmHg 80%
    17:00 +10°C° 0 mm 3 mps 765 mmHg 83%
    18:00 +10°C° 0 mm 3 mps 765 mmHg 87%
    19:00 +9°C° 0 mm 3 mps 765 mmHg 86%
    20:00 +9°C° 0 mm 3 mps 765 mmHg 85%
    21:00 +8°C° 0 mm 4 mps 764 mmHg 84%
    22:00 +7°C° 0 mm 4 mps 764 mmHg 84%
    23:00 +7°C° 0 mm 4 mps 764 mmHg 85%
    Show more